Total_Precipitation_Accumulation
0.58 0.61 0.65 0.65 0.67 0.74 0.74 0.72 0.69 0.65 0.61 0.60 0.61 0.61 0.59 0.56 0.54 0.54 0.53 0.51 0.51 0.50 0.50 0.52 0.54 0.56 0.61 0.65 0.72 0.80 0.88 0.97 1.02 0.87 0.73 0.66 0.64 0.59 0.54 0.45 0.39 0.38 0.37
0.52 0.55 0.59 0.60 0.59 0.64 0.67 0.69 0.67 0.64 0.59 0.57 0.57 0.57 0.54 0.51 0.48 0.47 0.47 0.48 0.50 0.51 0.52 0.54 0.56 0.60 0.67 0.72 0.78 0.83 0.85 0.86 0.86 0.80 0.66 0.58 0.52 0.45 0.39 0.33 0.28 0.25 0.24
0.46 0.49 0.57 0.57 0.54 0.57 0.60 0.61 0.59 0.60 0.61 0.60 0.57 0.57 0.54 0.52 0.50 0.49 0.48 0.48 0.50 0.53 0.55 0.59 0.62 0.66 0.69 0.69 0.68 0.68 0.67 0.64 0.62 0.61 0.54 0.47 0.42 0.37 0.34 0.28 0.23 0.21 0.18
0.45 0.46 0.49 0.52 0.54 0.53 0.53 0.51 0.54 0.53 0.54 0.57 0.57 0.57 0.57 0.55 0.54 0.53 0.54 0.56 0.59 0.62 0.65 0.68 0.71 0.71 0.68 0.65 0.61 0.58 0.55 0.52 0.49 0.49 0.49 0.44 0.40 0.35 0.32 0.28 0.23 0.19 0.18
0.41 0.42 0.43 0.46 0.48 0.49 0.48 0.47 0.47 0.48 0.47 0.48 0.51 0.54 0.59 0.61 0.63 0.63 0.64 0.69 0.72 0.74 0.73 0.72 0.69 0.71 0.67 0.61 0.56 0.52 0.49 0.50 0.52 0.55 0.54 0.46 0.36 0.30 0.25 0.20 0.20 0.20 0.19
0.35 0.38 0.37 0.37 0.38 0.45 0.50 0.48 0.46 0.47 0.49 0.51 0.56 0.61 0.66 0.73 0.91 0.90 0.82 0.80 0.79 0.76 0.72 0.66 0.61 0.61 0.57 0.55 0.52 0.50 0.52 0.57 0.64 0.67 0.58 0.42 0.27 0.21 0.21 0.24 0.29 0.34 0.28
0.32 0.40 0.39 0.37 0.40 0.43 0.49 0.54 0.55 0.58 0.60 0.63 0.68 0.76 0.82 0.89 0.98 0.89 0.79 0.68 0.65 0.61 0.56 0.51 0.45 0.42 0.42 0.39 0.42 0.47 0.49 0.54 0.54 0.49 0.40 0.28 0.23 0.23 0.32 0.40 0.37 0.35 0.26
0.25 0.33 0.40 0.43 0.52 0.57 0.61 0.64 0.66 0.69 0.76 0.84 0.90 0.91 0.90 0.89 0.84 0.71 0.62 0.51 0.45 0.41 0.37 0.33 0.30 0.28 0.27 0.30 0.34 0.42 0.39 0.36 0.34 0.32 0.30 0.28 0.28 0.30 0.38 0.48 0.45 0.37 0.25
0.29 0.36 0.43 0.49 0.57 0.63 0.72 0.77 0.80 0.83 0.85 0.85 0.82 0.76 0.68 0.61 0.55 0.43 0.34 0.28 0.26 0.23 0.21 0.21 0.22 0.20 0.25 0.36 0.40 0.42 0.33 0.26 0.27 0.31 0.36 0.37 0.36 0.33 0.33 0.41 0.45 0.45 0.34
0.44 0.50 0.57 0.64 0.67 0.67 0.73 0.77 0.76 0.71 0.65 0.55 0.46 0.38 0.31 0.27 0.27 0.26 0.23 0.16 0.15 0.14 0.15 0.17 0.23 0.25 0.35 0.45 0.41 0.39 0.32 0.27 0.30 0.31 0.29 0.27 0.25 0.24 0.26 0.30 0.47 0.68 0.53
0.55 0.58 0.64 0.68 0.68 0.64 0.57 0.48 0.40 0.34 0.30 0.25 0.20 0.17 0.16 0.17 0.17 0.18 0.22 0.20 0.17 0.17 0.16 0.15 0.18 0.29 0.38 0.43 0.38 0.29 0.31 0.38 0.37 0.32 0.29 0.27 0.25 0.23 0.21 0.21 0.32 0.69 0.87
0.47 0.46 0.43 0.38 0.31 0.27 0.24 0.21 0.17 0.14 0.12 0.11 0.12 0.13 0.13 0.15 0.18 0.20 0.22 0.25 0.26 0.23 0.20 0.17 0.21 0.32 0.34 0.32 0.28 0.28 0.34 0.34 0.26 0.27 0.28 0.26 0.24 0.23 0.21 0.21 0.24 0.32 0.51
0.18 0.16 0.14 0.11 0.09 0.08 0.08 0.08 0.08 0.07 0.08 0.09 0.10 0.11 0.13 0.16 0.19 0.23 0.26 0.29 0.32 0.30 0.26 0.27 0.29 0.29 0.26 0.24 0.25 0.27 0.28 0.24 0.24 0.27 0.27 0.23 0.22 0.23 0.24 0.25 0.23 0.21 0.21
0.08 0.08 0.08 0.08 0.07 0.08 0.08 0.09 0.09 0.10 0.11 0.12 0.12 0.13 0.13 0.15 0.18 0.21 0.25 0.29 0.31 0.32 0.33 0.34 0.32 0.28 0.25 0.23 0.24 0.23 0.22 0.21 0.26 0.30 0.28 0.25 0.24 0.24 0.25 0.26 0.30 0.29 0.30
0.06 0.07 0.08 0.08 0.08 0.09 0.09 0.10 0.13 0.14 0.17 0.19 0.18 0.18 0.19 0.18 0.20 0.27 0.30 0.30 0.34 0.39 0.40 0.32 0.30 0.27 0.23 0.21 0.21 0.20 0.21 0.22 0.24 0.25 0.30 0.32 0.29 0.27 0.24 0.25 0.33 0.39 0.42
0.08 0.09 0.10 0.12 0.12 0.13 0.13 0.12 0.13 0.15 0.18 0.19 0.19 0.19 0.17 0.18 0.23 0.28 0.30 0.31 0.36 0.41 0.40 0.31 0.26 0.24 0.22 0.20 0.21 0.21 0.21 0.24 0.27 0.32 0.34 0.36 0.37 0.35 0.32 0.27 0.31 0.40 0.39
0.09 0.10 0.11 0.11 0.12 0.14 0.16 0.17 0.18 0.19 0.20 0.21 0.21 0.21 0.20 0.21 0.22 0.24 0.28 0.32 0.33 0.36 0.33 0.26 0.23 0.22 0.22 0.22 0.23 0.25 0.26 0.25 0.30 0.38 0.40 0.41 0.42 0.39 0.36 0.34 0.32 0.34 0.31
0.09 0.11 0.13 0.12 0.13 0.13 0.14 0.16 0.17 0.19 0.20 0.19 0.20 0.23 0.24 0.24 0.25 0.27 0.31 0.34 0.32 0.30 0.25 0.22 0.22 0.22 0.25 0.28 0.31 0.34 0.35 0.33 0.34 0.37 0.38 0.39 0.42 0.44 0.40 0.35 0.33 0.36 0.37
0.09 0.10 0.11 0.13 0.14 0.15 0.16 0.16 0.16 0.16 0.16 0.17 0.18 0.21 0.27 0.29 0.30 0.31 0.33 0.30 0.26 0.23 0.21 0.21 0.22 0.26 0.31 0.35 0.39 0.41 0.43 0.43 0.42 0.43 0.41 0.40 0.44 0.50 0.43 0.34 0.34 0.32 0.36
0.08 0.11 0.13 0.12 0.13 0.14 0.16 0.17 0.17 0.17 0.17 0.17 0.17 0.19 0.26 0.32 0.29 0.26 0.26 0.26 0.25 0.24 0.24 0.26 0.27 0.31 0.38 0.43 0.45 0.46 0.46 0.42 0.42 0.44 0.41 0.41 0.44 0.51 0.50 0.41 0.39 0.39 0.36
0.09 0.11 0.15 0.14 0.12 0.13 0.15 0.17 0.19 0.20 0.19 0.18 0.18 0.22 0.32 0.31 0.27 0.24 0.25 0.26 0.27 0.28 0.29 0.31 0.33 0.36 0.42 0.45 0.45 0.43 0.42 0.39 0.41 0.47 0.48 0.45 0.47 0.48 0.44 0.45 0.43 0.43 0.44
0.10 0.11 0.13 0.14 0.14 0.15 0.18 0.18 0.19 0.20 0.20 0.19 0.19 0.22 0.30 0.27 0.23 0.23 0.24 0.25 0.26 0.28 0.31 0.36 0.38 0.40 0.50 0.58 0.60 0.57 0.46 0.38 0.38 0.47 0.51 0.48 0.50 0.50 0.50 0.50 0.47 0.46 0.44
0.13 0.14 0.15 0.15 0.16 0.18 0.20 0.18 0.18 0.19 0.19 0.19 0.20 0.21 0.23 0.24 0.23 0.24 0.25 0.25 0.27 0.28 0.30 0.36 0.40 0.39 0.41 0.53 0.64 0.78 0.78 0.61 0.51 0.62 0.82 0.79 0.68 0.64 0.62 0.58 0.50 0.47 0.41
0.14 0.15 0.16 0.17 0.17 0.18 0.18 0.17 0.17 0.18 0.19 0.19 0.20 0.21 0.22 0.23 0.23 0.23 0.24 0.25 0.26 0.27 0.28 0.34 0.40 0.40 0.40 0.49 0.56 0.63 0.70 0.79 1.04 1.21 1.23 1.19 0.90 0.69 0.62 0.57 0.50 0.46 0.43
0.13 0.14 0.15 0.17 0.18 0.19 0.19 0.18 0.18 0.18 0.19 0.19 0.20 0.21 0.22 0.22 0.22 0.22 0.23 0.24 0.25 0.24 0.23 0.28 0.35 0.40 0.42 0.46 0.52 0.56 0.59 0.78 1.03 1.12 1.02 0.91 0.75 0.61 0.58 0.55 0.49 0.45 0.44
0.12 0.14 0.15 0.16 0.16 0.17 0.18 0.18 0.17 0.17 0.17 0.17 0.18 0.18 0.20 0.20 0.20 0.20 0.20 0.21 0.22 0.21 0.20 0.22 0.26 0.34 0.39 0.42 0.40 0.47 0.62 0.66 0.60 0.59 0.78 0.83 0.72 0.59 0.56 0.59 0.53 0.49 0.47